Previsão horária em Aarwangen

Hoje, 17 Abril, Sábado

Tempo Temperatura Precipitação Vento Pressão Humidade
00:00 -1°C° 0 mm 1 m/s 721 mmHg 91%
01:00 -1°C° 0 mm 1 m/s 721 mmHg 94%
02:00 -2°C° 0 mm 1 m/s 721 mmHg 94%
03:00 -2°C° 0 mm 1 m/s 721 mmHg 95%
04:00 -2°C° 0 mm 1 m/s 721 mmHg 96%
05:00 -1°C° 0 mm 1 m/s 721 mmHg 92%
06:00 0°C° 0 mm 1 m/s 721 mmHg 88%
07:00 0°C° 0 mm 1 m/s 721 mmHg 85%
08:00 +1°C° 0 mm 2 m/s 721 mmHg 76%
09:00 +2°C° 0 mm 3 m/s 721 mmHg 68%
10:00 +4°C° 0 mm 3 m/s 720 mmHg 59%
11:00 +7°C° 0 mm 3 m/s 720 mmHg 54%
12:00 +7°C° 0 mm 4 m/s 720 mmHg 50%
13:00 +8°C° 0 mm 4 m/s 719 mmHg 45%
14:00 +8°C° 0 mm 4 m/s 719 mmHg 48%
15:00 +8°C° 0 mm 4 m/s 719 mmHg 52%
16:00 +8°C° 0 mm 4 m/s 719 mmHg 55%
17:00 +7°C° 0 mm 3 m/s 719 mmHg 62%
18:00 +6°C° 0 mm 2 m/s 719 mmHg 68%
19:00 +5°C° 0 mm 2 m/s 719 mmHg 74%
20:00 +5°C° 0 mm 1 m/s 719 mmHg 77%
21:00 +5°C° 0 mm 1 m/s 720 mmHg 80%
22:00 +4°C° 0 mm 1 m/s 720 mmHg 83%
23:00 +3°C° 0 mm 1 m/s 720 mmHg 85%

Amanhã, 18 Abril, Domingo

Tempo Temperatura Precipitação Vento Pressão Humidade
00:00 +3°C° 0 mm 1 m/s 720 mmHg 88%
01:00 +3°C° 0 mm 1 m/s 720 mmHg 91%
02:00 +3°C° 0 mm 1 m/s 720 mmHg 91%
03:00 +3°C° 0 mm 1 m/s 719 mmHg 92%
04:00 +3°C° 0 mm 1 m/s 719 mmHg 93%
05:00 +3°C° 0 mm 1 m/s 719 mmHg 93%
06:00 +3°C° 0 mm 1 m/s 720 mmHg 93%
07:00 +4°C° 0 mm 1 m/s 720 mmHg 93%
08:00 +4°C° 0 mm 1 m/s 720 mmHg 92%
09:00 +5°C° 0 mm 1 m/s 720 mmHg 91%
10:00 +5°C° 0 mm 1 m/s 720 mmHg 90%
11:00 +6°C° 0.1 mm 1 m/s 720 mmHg 85%
12:00 +7°C° 0.1 mm 1 m/s 720 mmHg 79%
13:00 +7°C° 0.1 mm 2 m/s 720 mmHg 74%
14:00 +7°C° 0.1 mm 2 m/s 720 mmHg 73%
15:00 +7°C° 0.1 mm 2 m/s 720 mmHg 71%
16:00 +7°C° 0.1 mm 2 m/s 719 mmHg 69%
17:00 +6°C° 0 mm 2 m/s 720 mmHg 76%
18:00 +6°C° 0 mm 1 m/s 720 mmHg 83%
19:00 +6°C° 0 mm 1 m/s 720 mmHg 89%
20:00 +5°C° 0 mm 1 m/s 720 mmHg 91%
21:00 +3°C° 0 mm 0 m/s 720 mmHg 93%
22:00 +2°C° 0 mm 0 m/s 720 mmHg 95%
23:00 +1°C° 0 mm 0 m/s 720 mmHg 95%

Depois de amanhã, 19 Abril, Segunda-feira

Tempo Temperatura Precipitação Vento Pressão Humidade
00:00 +1°C° 0 mm 0 m/s 720 mmHg 95%
01:00 0°C° 0 mm 0 m/s 720 mmHg 95%
02:00 0°C° 0 mm 0 m/s 720 mmHg 95%
03:00 0°C° 0 mm 0 m/s 719 mmHg 95%
04:00 +1°C° 0 mm 0 m/s 719 mmHg 94%
05:00 +1°C° 0 mm 0 m/s 719 mmHg 93%
06:00 +2°C° 0 mm 0 m/s 719 mmHg 91%
07:00 +3°C° 0 mm 0 m/s 719 mmHg 89%
08:00 +4°C° 0 mm 0 m/s 719 mmHg 83%
09:00 +7°C° 0 mm 1 m/s 719 mmHg 77%
10:00 +8°C° 0 mm 1 m/s 719 mmHg 71%
11:00 +9°C° 0 mm 1 m/s 719 mmHg 68%
12:00 +9°C° 0 mm 1 m/s 718 mmHg 65%
13:00 +10°C° 0 mm 1 m/s 718 mmHg 62%
14:00 +10°C° 0.1 mm 1 m/s 718 mmHg 61%
15:00 +10°C° 0.1 mm 1 m/s 718 mmHg 59%
16:00 +11°C° 0.1 mm 1 m/s 717 mmHg 58%
17:00 +9°C° 0 mm 1 m/s 717 mmHg 65%
18:00 +8°C° 0 mm 1 m/s 717 mmHg 73%
19:00 +6°C° 0 mm 1 m/s 717 mmHg 80%
20:00 +5°C° 0 mm 1 m/s 717 mmHg 84%
21:00 +4°C° 0 mm 1 m/s 717 mmHg 87%
22:00 +3°C° 0 mm 1 m/s 717 mmHg 91%
23:00 +2°C° 0 mm 1 m/s 717 mmHg 91%

20 Abril, Terça-feira

Tempo Temperatura Precipitação Vento Pressão Humidade
00:00 +2°C° 0 mm 1 m/s 717 mmHg 92%
01:00 +2°C° 0 mm 1 m/s 717 mmHg 92%
02:00 +1°C° 0 mm 1 m/s 717 mmHg 92%
03:00 +1°C° 0 mm 1 m/s 717 mmHg 92%
04:00 +1°C° 0 mm 1 m/s 717 mmHg 92%
05:00 +1°C° 0 mm 1 m/s 717 mmHg 89%
06:00 +1°C° 0 mm 0 m/s 717 mmHg 86%
07:00 +2°C° 0 mm 0 m/s 717 mmHg 83%
08:00 +6°C° 0 mm 1 m/s 717 mmHg 73%
09:00 +8°C° 0 mm 1 m/s 716 mmHg 64%
10:00 +11°C° 0 mm 1 m/s 716 mmHg 55%
11:00 +12°C° 0 mm 1 m/s 716 mmHg 50%
12:00 +13°C° 0 mm 1 m/s 716 mmHg 45%
13:00 +15°C° 0 mm 1 m/s 715 mmHg 40%
14:00 +15°C° 0 mm 1 m/s 715 mmHg 40%
15:00 +15°C° 0 mm 2 m/s 715 mmHg 40%
16:00 +15°C° 0 mm 2 m/s 714 mmHg 40%
17:00 +13°C° 0 mm 1 m/s 715 mmHg 51%
18:00 +11°C° 0 mm 1 m/s 715 mmHg 63%
19:00 +9°C° 0 mm 1 m/s 715 mmHg 74%
20:00 +8°C° 0 mm 1 m/s 715 mmHg 79%
21:00 +6°C° 0 mm 1 m/s 716 mmHg 84%
22:00 +5°C° 0 mm 1 m/s 716 mmHg 88%
23:00 +5°C° 0 mm 1 m/s 716 mmHg 89%

21 Abril, Quarta-feira

Tempo Temperatura Precipitação Vento Pressão Humidade
00:00 +4°C° 0 mm 1 m/s 716 mmHg 90%
01:00 +4°C° 0 mm 1 m/s 716 mmHg 91%
02:00 +4°C° 0 mm 1 m/s 716 mmHg 91%
03:00 +3°C° 0 mm 1 m/s 716 mmHg 91%
04:00 +3°C° 0 mm 1 m/s 716 mmHg 92%
05:00 +3°C° 0 mm 0 m/s 717 mmHg 88%
06:00 +4°C° 0 mm 0 m/s 717 mmHg 85%
07:00 +5°C° 0 mm 0 m/s 717 mmHg 82%
08:00 +7°C° 0 mm 0 m/s 717 mmHg 73%
09:00 +10°C° 0 mm 0 m/s 717 mmHg 64%
10:00 +13°C° 0 mm 0 m/s 717 mmHg 54%
11:00 +15°C° 0.1 mm 1 m/s 717 mmHg 51%
12:00 +15°C° 0.1 mm 1 m/s 717 mmHg 48%
13:00 +16°C° 0.1 mm 1 m/s 716 mmHg 45%
14:00 +16°C° 0.1 mm 2 m/s 716 mmHg 47%
15:00 +16°C° 0.1 mm 3 m/s 716 mmHg 49%
16:00 +14°C° 0.1 mm 3 m/s 716 mmHg 51%
17:00 +12°C° 0.4 mm 3 m/s 717 mmHg 65%
18:00 +10°C° 0.4 mm 2 m/s 717 mmHg 79%
19:00 +9°C° 0.4 mm 1 m/s 718 mmHg 92%
20:00 +9°C° 0.2 mm 1 m/s 718 mmHg 93%
21:00 +8°C° 0.2 mm 1 m/s 719 mmHg 95%
22:00 +8°C° 0.2 mm 1 m/s 719 mmHg 96%
23:00 +7°C° 0.1 mm 1 m/s 720 mmHg 95%

22 Abril, Quinta-feira

Tempo Temperatura Precipitação Vento Pressão Humidade
00:00 +7°C° 0.1 mm 1 m/s 720 mmHg 95%
01:00 +7°C° 0.1 mm 1 m/s 720 mmHg 95%
02:00 +6°C° 0.2 mm 1 m/s 720 mmHg 94%
03:00 +6°C° 0.2 mm 1 m/s 720 mmHg 94%
04:00 +5°C° 0.2 mm 1 m/s 720 mmHg 94%
05:00 +5°C° 0 mm 1 m/s 721 mmHg 93%
06:00 +5°C° 0 mm 1 m/s 721 mmHg 93%
07:00 +5°C° 0 mm 1 m/s 721 mmHg 92%
08:00 +6°C° 0 mm 1 m/s 722 mmHg 83%
09:00 +7°C° 0 mm 1 m/s 722 mmHg 74%
10:00 +8°C° 0 mm 2 m/s 722 mmHg 64%
11:00 +9°C° 0 mm 2 m/s 722 mmHg 58%
12:00 +9°C° 0 mm 3 m/s 722 mmHg 51%
13:00 +10°C° 0 mm 3 m/s 722 mmHg 45%
14:00 +10°C° 0 mm 3 m/s 722 mmHg 44%
15:00 +10°C° 0 mm 4 m/s 722 mmHg 43%
16:00 +10°C° 0 mm 4 m/s 722 mmHg 42%
17:00 +8°C° 0.1 mm 3 m/s 723 mmHg 51%
18:00 +7°C° 0.1 mm 2 m/s 723 mmHg 59%
19:00 +6°C° 0.1 mm 1 m/s 724 mmHg 68%
20:00 +5°C° 0 mm 1 m/s 724 mmHg 73%
21:00 +3°C° 0 mm 1 m/s 724 mmHg 78%
22:00 +1°C° 0 mm 0 m/s 724 mmHg 83%
23:00 +2°C° 0 mm 1 m/s 724 mmHg 85%
Mostrar mais